Regional Weather Roundup
Issued by NWS Goodland, KS

Home | Current Version | Previous Version | Text Only | Print | Product List | Glossary Off
Versions: 1 2 3 4 5 6 7 8 9 10 11 12 13 14 15 16 17 18 19 20 21 22 23 24 25 26 27 28 29 30 31 32 33 34 35 36 37 38 39 40 41 42 43 44 45 46 47 48 49 50

000
ASUS43 KGLD 241059
RWRGLD

GOODLAND FORECAST AREA HOURLY WEATHER ROUNDUP
NATIONAL WEATHER SERVICE GOODLAND KS
500 AM MDT WED MAY 24 2017

...OFFICIAL OBSERVATIONS...

CITY           SKY/WX    TMP DP  RH WIND       PRES   REMARKS
GOODLAND KS    CLEAR     36  33  89 W3        29.91F
HILL CITY KS   CLEAR     40  38  93 NW9       29.89F
IMPERIAL NEB   CLEAR     37  33  85 W3        29.91F
MCCOOK NEB     CLEAR     35  35 100 W6        29.89F
AKRON CO       CLEAR     40  32  73 S9        29.90F
BURLINGTON CO  CLEAR     34  32  92 W8        29.91F
LIMON CO       CLEAR     28  27  96 NW6       29.93F
$$

...UNOFFICIAL OBSERVATIONS...

CITY           SKY/WX    TMP DP  RH WIND       PRES   REMARKS
LENORA KS        N/A     39  32  76 MISG        N/A
NORTON KS      CLEAR     37  34  87 NW8       29.88F
SHARON SPRINGS   N/A     36  34  91 W5          N/A
TRENTON NEB      N/A     37  32  82 CALM        N/A
KIT CARSON CO    N/A     36  33  88 MISG        N/A
YUMA CO        FAIR      32  32 100 W3        29.90F
$$



USA.gov is the U.S. government's official web portal to all federal, state and local government web resources and services.